This demonstration page uses our WeatherBlox Daily Observations layout. Learn more.

40.92945, -100.16068

Hourly Observations for April 20, 2018

Temp ( °F °C ) Dew Point ( °F °C ) Humidity (%) Winds ( mph kmh ) Pressure ( in mb ) Visibility ( mi km ) Precip ( " mm )
12:15 am 00:15 Clear 42 5.6 28 -2.2 58 58 SE 10 17 30.36 1028 10 16.0934 0 0
12:35 am 00:35 Clear 42 5.6 28 -2.2 58 58 SE 10 17 30.36 1028 10 16.0934 0 0
12:55 am 00:55 Clear 42 5.7 28 -2.2 57 57 SE 10 17 30.36 1028 10 16.0934 0 0
1:15 am 01:15 Clear 42 5.8 28 -2.2 57 57 SE 12 19 30.36 1028 10 16.0934 0 0
1:35 am 01:35 Clear 42 5.7 28 -2.2 57 57 SE 10 17 30.36 1028 10 16.0934 0 0
1:55 am 01:55 Clear 42 5.5 28 -2.2 58 58 SE 10 17 30.36 1028 10 16.0934 0 0
2:15 am 02:15 Clear 41 5.2 28 -2.1 60 60 SE 9 15 30.36 1028 10 16.0934 0 0
2:35 am 02:35 Clear 41 4.8 28 -2.3 60 60 SE 9 15 30.36 1028 10 16.0934 0 0
2:55 am 02:55 Clear 39 4 28 -2.3 64 64 SE 7 11 30.36 1028 10 16.0934 0 0
3:15 am 03:15 Clear 39 4 28 -2.1 65 65 ESE 8 13 30.33 1027 10 16.0934 0 0
3:35 am 03:35 Clear 39 3.8 28 -2.1 66 66 ESE 7 11 30.33 1027 10 16.0934 0 0
3:55 am 03:55 Clear 39 3.9 28 -2 66 66 ESE 7 11 30.33 1027 10 16.0934 0 0
4:15 am 04:15 Clear 40 4.2 28 -2 64 64 ESE 9 15 30.33 1027 10 16.0934 0 0
4:35 am 04:35 Clear 40 4.2 28 -2 64 64 ESE 9 15 30.33 1027 10 16.0934 0 0
4:55 am 04:55 Clear 39 4.1 29 -1.9 65 65 SE 7 11 30.33 1027 10 16.0934 0 0
5:15 am 05:15 Clear 39 3.8 29 -1.7 68 68 ESE 9 15 30.33 1027 10 16.0934 0 0
5:35 am 05:35 Clear 40 4.3 29 -1.6 66 66 ESE 7 11 30.33 1027 10 16.0934 0 0
5:55 am 05:55 Partly Cloudy 40 4.7 29 -1.6 64 64 ESE 8 13 30.33 1027 10 16.0934 0 0
6:15 am 06:15 Cloudy 41 5 29 -1.6 63 63 ESE 9 15 30.33 1027 10 16.0934 0 0
6:35 am 06:35 Mostly Cloudy 41 4.9 29 -1.5 64 64 SE 8 13 30.33 1027 10 16.0934 0 0
6:55 am 06:55 Cloudy 40 4.7 30 -1.2 66 66 ESE 8 13 30.33 1027 10 16.0934 0 0
7:15 am 07:15 Cloudy 41 4.8 30 -1 66 66 SE 8 13 30.33 1027 10 16.0934 0 0
7:35 am 07:35 Cloudy 41 4.9 30 -1 66 66 SE 12 19 30.33 1027 10 16.0934 0 0
7:55 am 07:55 Cloudy 41 5.2 30 -0.9 65 65 SE 10 17 30.33 1027 10 16.0934 0 0
8:15 am 08:15 Cloudy 41 5.2 31 -0.6 67 67 SE 9 15 30.33 1027 10 16.0934 0 0
8:35 am 08:35 Cloudy 42 5.6 31 -0.4 66 66 SE 7 11 30.33 1027 10 16.0934 0 0
8:55 am 08:55 Cloudy 43 6.2 31 -0.5 63 63 SE 12 19 30.3 1026 10 16.0934 0 0
9:15 am 09:15 Cloudy 44 6.5 31 -0.5 61 61 SSE 12 19 30.3 1026 10 16.0934 0 0
9:35 am 09:35 Cloudy 45 7.3 31 -0.3 59 59 SSE 14 22 30.3 1026 10 16.0934 0 0
9:55 am 09:55 Cloudy 46 7.7 32 -0.1 58 58 SSE 16 26 30.3 1026 10 16.0934 0 0
10:15 am 10:15 Cloudy 46 8 31 -0.3 56 56 SSE 18 30 30.3 1026 10 16.0934 0 0
10:35 am 10:35 Cloudy 47 8.2 32 0 57 57 SSE 17 28 30.3 1026 10 16.0934 0 0
10:55 am 10:55 Cloudy 47 8.3 32 -0.1 56 56 SE 18 30 30.3 1026 10 16.0934 0 0
11:15 am 11:15 Cloudy 47 8.6 32 -0.1 55 55 SE 16 26 30.3 1026 10 16.0934 0 0
11:35 am 11:35 Cloudy 48 9.1 32 0 53 53 SE 17 28 30.27 1025 10 16.0934 0 0
11:55 am 11:55 Cloudy 49 9.6 32 0.1 52 52 SE 16 26 30.27 1025 10 16.0934 0 0
12:15 pm 12:15 Cloudy 50 9.9 32 0.1 51 51 SSE 20 31 30.24 1024 10 16.0934 0 0
12:35 pm 12:35 Mostly Cloudy 51 10.5 32 0.2 49 49 SE 16 26 30.24 1024 10 16.0934 0 0
12:55 pm 12:55 Mostly Cloudy 52 11 32 0 47 47 SE 20 31 30.24 1024 10 16.0934 0 0
1:15 pm 13:15 Cloudy 52 11.1 33 0.4 48 48 SSE 18 30 30.21 1023 10 16.0934 0 0
1:35 pm 13:35 Cloudy 51 10.7 32 0.1 48 48 SE 16 26 30.21 1023 10 16.0934 0 0
1:55 pm 13:55 Cloudy 50 10 32 0 50 50 SE 15 24 30.21 1023 10 16.0934 0 0
2:15 pm 14:15 Cloudy 50 10.2 32 0 49 49 SSE 14 22 30.24 1024 10 16.0934 0 0
2:35 pm 14:35 Cloudy 50 10 32 -0.1 50 50 S 13 20 30.27 1025 10 16.0934 0 0
2:55 pm 14:55 Cloudy with Light Rain 50 10 32 0.1 51 51 SE 9 15 30.27 1025 10 16.0934 0 0
3:15 pm 15:15 Cloudy 51 10.6 33 0.4 50 50 SE 9 15 30.27 1025 10 16.0934 0 0
3:35 pm 15:35 Cloudy 50 10.2 32 0.1 50 50 SE 9 15 30.24 1024 10 16.0934 0 0
3:55 pm 15:55 Partly Cloudy 51 10.3 32 0 49 49 SE 9 15 30.24 1024 10 16.0934 0 0
4:15 pm 16:15 Partly Cloudy 51 10.5 32 0.1 49 49 SE 9 15 30.24 1024 10 16.0934 0 0
4:35 pm 16:35 Mostly Cloudy 51 10.5 32 0 49 49 ESE 6 9 30.21 1023 10 16.0934 0 0
4:55 pm 16:55 Mostly Cloudy 51 10.7 32 0 48 48 SE 8 13 30.24 1024 10 16.0934 0 0
5:15 pm 17:15 Cloudy with Light Rain 51 10.5 32 0.2 49 49 SSE 9 15 30.27 1025 10 16.0934 0 0
5:35 pm 17:35 Cloudy with Rain 47 8.4 37 2.7 68 68 S 12 19 30.3 1026 7 11.26538 0.02 0.508
5:55 pm 17:55 Cloudy with Heavy Rain 45 7.3 38 3.3 76 76 Calm 30.27 1025 5 8.0467 0.07 1.778
6:15 pm 18:15 Cloudy with Light Rain 44 6.9 38 3.6 80 80 Calm 30.3 1026 1.75 2.816345 0.09 2.286
6:35 pm 18:35 Cloudy with Light Rain 44 6.5 39 4 84 84 NE 7 11 30.27 1025 5 8.0467 0.14 3.556
6:55 pm 18:55 Cloudy with Light Rain 44 6.5 38 3.5 81 81 NE 7 11 30.27 1025 10 16.0934 0.14 3.556
7:15 pm 19:15 Cloudy with Rain 43 6.3 39 3.7 84 84 N 7 11 30.3 1026 10 16.0934 0.02 0.508
7:35 pm 19:35 Cloudy with Light Rain 43 6.1 39 4 87 87 N 10 17 30.27 1025 7 11.26538 0.05 1.27
7:55 pm 19:55 Cloudy with Drizzle 43 6 39 3.8 86 86 NNE 10 17 30.27 1025 10 16.0934 0.05 1.27
8:15 pm 20:15 Cloudy with Light Rain 43 6 39 4 87 87 NNE 12 19 30.24 1024 10 16.0934 0 0
8:35 pm 20:35 Mostly Cloudy 42 5.8 39 3.8 87 87 NE 16 26 30.24 1024 10 16.0934 0 0
8:55 pm 20:55 Mostly Cloudy 42 5.7 38 3.6 87 87 NE 18 30 30.24 1024 10 16.0934 0 0
9:15 pm 21:15 Cloudy 43 5.9 39 3.7 86 86 NE 15 24 30.24 1024 10 16.0934 0 0
9:35 pm 21:35 Cloudy 43 6.1 39 4 87 87 NE 15 24 30.24 1024 10 16.0934 0 0
9:55 pm 21:55 Cloudy 43 6.1 39 4 87 87 ENE 16 26 30.27 1025 10 16.0934 0 0
10:15 pm 22:15 Cloudy 43 6.2 39 3.8 85 85 NE 15 24 30.27 1025 10 16.0934 0 0
10:35 pm 22:35 Cloudy with Light Drizzle 43 6.1 39 3.7 85 85 NE 12 19 30.27 1025 10 16.0934 0 0
10:55 pm 22:55 Cloudy with Light Rain 43 6.2 39 3.8 85 85 ENE 14 22 30.27 1025 10 16.0934 0 0
11:15 pm 23:15 Cloudy with Light Drizzle 43 6.3 39 3.9 85 85 ENE 12 19 30.27 1025 10 16.0934 0 0
11:35 pm 23:35 Cloudy with Rain 43 6.3 39 4 85 85 E 9 15 30.27 1025 10 16.0934 0.01 0.254
11:55 pm 23:55 Cloudy 43 6.3 40 4.2 87 87 E 8 13 30.27 1025 10 16.0934 0.01 0.254

Powered by AerisWeather